Theta_e
280 282 283 284 285 286 288 291 292 292 292 293 294 295 293 293 291 290 290 292 293 297 304 303 307 312 315 316 317 318 318 312 307 313 317 319 318 313 315 317 318 318 317 317 316 316 316 317 318 318 319 319 320 321 320 320 319 321 321 322 324 325 325 326 326 326 326 326 326 326 325 325 326 326
280 282 283 284 284 285 287 289 292 291 292 293 295 295 295 295 293 293 290 291 295 296 301 305 306 310 313 317 317 318 318 306 309 316 318 318 319 311 312 314 316 316 316 316 315 315 315 316 316 316 317 317 319 320 320 319 319 321 322 324 325 326 325 326 325 325 324 325 326 326 325 325 326 326
279 279 279 281 282 283 284 287 290 291 290 292 294 294 295 295 295 295 293 290 294 298 296 300 304 308 312 316 317 317 318 308 311 318 319 319 311 306 311 311 314 315 315 315 315 315 315 315 315 315 315 318 318 319 319 318 318 320 322 324 325 326 326 325 324 324 323 325 326 326 326 326 326 327
277 277 278 279 280 282 284 285 288 290 292 293 293 294 294 295 296 296 295 293 292 297 297 298 301 306 310 315 316 316 316 309 304 318 319 318 305 310 314 309 312 313 314 315 315 315 315 315 315 315 315 317 318 318 318 318 318 319 320 323 325 325 323 323 322 322 323 323 324 325 324 325 325 326
275 276 277 279 281 282 281 283 286 290 291 292 292 294 294 294 295 295 295 293 293 296 299 299 300 302 307 310 315 315 315 310 312 313 319 316 314 314 316 315 308 310 313 314 314 314 314 315 314 314 314 316 316 316 317 316 316 318 320 321 323 324 324 323 322 321 321 323 323 323 323 324 324 324
275 276 276 276 278 280 280 281 283 288 291 291 292 293 293 293 294 296 295 294 293 293 296 297 301 302 306 307 314 315 313 310 310 316 318 316 316 316 316 315 314 309 311 313 314 314 314 315 314 314 314 315 316 316 316 315 315 317 318 319 319 320 321 322 322 321 320 322 323 323 323 323 324 323
274 274 274 275 276 278 279 280 283 287 290 291 291 292 293 292 294 295 297 295 294 294 294 298 299 301 304 307 311 315 314 311 314 316 316 315 316 316 316 316 315 309 311 313 313 314 314 314 314 313 313 314 314 315 315 315 314 316 317 317 317 317 317 319 319 319 320 322 323 322 322 323 324 323
273 272 273 274 275 277 278 280 281 285 290 291 291 291 292 293 293 295 296 296 296 295 294 296 298 301 303 307 314 316 314 313 314 316 315 315 316 315 315 316 315 310 311 311 312 312 312 313 313 313 313 314 314 314 314 314 314 314 314 315 315 315 315 316 316 317 317 320 322 323 322 323 322 321
272 272 272 273 275 277 278 279 280 283 287 290 290 291 292 292 293 294 295 295 296 296 295 295 298 301 304 308 313 314 312 311 313 313 313 313 314 314 313 315 314 308 309 309 310 310 311 311 312 313 313 313 314 314 314 313 313 312 312 312 312 314 314 314 314 314 314 316 316 319 321 322 320 320
272 272 272 273 274 276 278 279 281 284 287 289 290 290 291 292 292 292 293 294 294 294 296 296 296 299 301 303 306 311 313 311 308 307 309 311 312 311 311 311 312 311 313 312 313 309 310 309 310 312 312 313 313 313 313 312 311 310 309 310 311 312 313 314 313 313 313 313 314 315 318 319 320 318
272 272 272 273 274 275 276 278 280 282 285 288 288 289 290 291 291 291 292 293 293 293 294 295 297 297 300 303 303 308 313 312 310 307 305 304 306 308 310 308 309 311 313 310 309 311 311 309 311 310 311 312 312 312 312 312 310 308 308 309 310 311 312 312 312 312 312 312 312 312 312 314 318 318
272 272 272 273 273 274 277 280 282 285 286 287 288 289 290 289 288 288 289 290 292 292 294 295 295 297 298 300 305 307 310 308 307 309 308 304 304 305 307 308 308 309 311 311 311 309 308 308 309 309 310 310 311 311 310 309 307 305 308 309 310 310 310 311 311 311 310 310 310 311 311 311 313 318
271 272 272 273 273 274 277 279 280 282 284 285 287 288 287 286 286 287 287 287 287 289 292 294 296 296 297 300 302 304 306 307 306 307 309 307 307 306 306 306 309 309 310 308 310 310 312 310 311 311 312 313 310 309 307 307 304 305 308 309 310 310 310 310 310 310 309 309 309 310 310 310 311 312
271 272 272 273 276 277 278 279 281 282 283 285 286 288 287 286 286 286 285 285 286 287 288 290 294 295 296 299 302 305 307 309 309 308 308 306 305 306 303 303 303 307 309 308 307 308 310 311 310 311 312 313 309 311 312 312 309 306 308 308 309 309 309 309 309 309 309 309 309 309 309 309 309 310
271 272 274 275 276 278 279 279 282 283 284 286 288 290 289 288 287 285 285 285 285 285 285 288 293 295 296 299 304 306 308 309 309 308 308 305 305 303 301 298 299 303 308 307 306 304 305 309 307 308 310 311 311 313 312 307 305 306 308 308 308 308 308 309 308 308 308 308 308 308 308 308 308 308
273 273 273 274 275 277 279 280 282 284 286 287 288 289 289 289 289 289 287 285 285 285 284 285 289 296 297 300 304 306 308 307 308 308 307 306 305 303 302 302 301 303 308 307 304 301 298 305 306 306 308 308 311 311 309 306 306 307 308 307 307 308 308 308 308 307 307 307 307 307 307 307 308 308
273 273 273 274 275 277 280 281 282 284 285 287 288 289 289 289 289 289 289 289 286 286 285 285 285 293 300 300 303 307 308 308 306 305 305 305 305 305 303 303 303 303 308 307 303 301 297 300 302 303 303 303 308 307 306 306 306 306 308 308 307 307 307 307 307 307 307 307 307 307 307 307 306 306
273 273 273 273 274 276 278 281 284 285 286 286 286 287 287 286 286 288 288 288 288 287 286 286 285 288 298 301 304 306 307 306 304 304 303 304 303 303 303 305 304 305 308 305 303 301 297 297 302 301 297 297 301 304 306 305 305 306 307 307 307 307 307 306 306 306 306 306 306 307 307 306 306 306
274 274 275 274 274 276 278 281 283 284 285 285 286 285 285 286 286 286 286 287 287 287 287 287 287 289 292 302 306 308 309 308 308 307 304 304 304 303 301 301 300 302 306 306 304 299 299 296 301 299 295 295 297 297 304 304 305 305 306 306 307 307 307 306 306 306 306 306 306 306 306 305 305 305
275 275 275 275 275 276 277 279 282 283 284 285 285 285 285 286 286 286 288 288 288 288 289 290 292 293 294 297 305 305 309 309 309 305 304 300 297 298 300 298 298 299 301 303 303 300 298 296 301 296 293 295 297 295 298 303 305 305 306 306 306 306 306 306 305 305 305 305 306 306 305 305 305 304
275 275 275 275 275 276 277 280 283 285 285 284 284 284 285 285 286 286 287 288 289 289 290 291 291 293 296 298 302 304 305 304 305 303 300 297 302 301 299 296 298 299 300 300 301 300 296 294 299 293 292 296 297 297 297 300 304 305 305 306 306 306 305 305 305 305 305 305 305 305 305 305 304 302
276 276 278 277 276 276 278 282 284 285 284 282 283 284 284 284 285 285 287 287 287 288 289 290 291 293 295 297 301 303 304 303 301 302 300 300 303 301 299 297 298 299 299 299 299 297 297 295 296 292 290 292 292 296 295 294 298 302 304 305 305 305 305 305 305 305 305 305 305 305 305 304 303 304
276 276 277 279 279 278 279 282 283 284 284 283 283 284 284 283 284 285 286 286 286 286 286 288 292 293 294 297 303 301 301 300 300 306 303 303 303 301 299 298 298 297 298 299 299 298 294 295 296 294 293 295 290 290 293 295 297 299 299 304 306 304 304 304 305 305 305 304 304 304 304 304 303 305
275 276 276 278 280 282 283 283 284 285 285 284 284 284 283 283 283 286 286 286 286 286 286 287 290 295 298 299 302 303 301 301 300 305 305 305 305 302 300 299 299 298 299 301 300 299 295 298 296 297 299 296 293 290 291 294 295 297 299 300 301 302 302 302 303 304 304 304 304 304 304 303 303 304
275 276 276 277 280 282 283 284 285 285 286 286 285 285 284 284 285 287 285 286 286 286 286 286 288 295 297 299 301 301 302 301 303 303 302 305 306 304 301 300 300 300 301 301 300 298 294 297 296 296 297 299 292 288 289 291 290 295 296 299 300 301 301 303 301 305 302 303 304 304 304 303 303 304
274 276 277 278 280 282 283 284 284 285 286 286 285 285 287 287 287 286 286 286 286 286 286 286 289 295 297 299 299 300 300 300 301 303 304 305 306 306 306 302 301 300 299 302 300 299 297 296 297 297 297 296 290 294 289 290 291 294 296 299 301 302 301 301 301 303 303 304 305 304 304 303 304 303
273 275 276 278 281 282 283 283 284 285 286 286 285 287 287 287 288 287 286 286 285 285 285 286 290 295 297 297 298 299 300 301 302 303 304 305 306 303 304 305 306 304 303 302 300 299 299 298 297 298 297 297 294 293 294 292 288 290 293 296 298 299 301 302 301 302 302 302 303 303 303 303 303 303
273 274 275 277 280 282 283 284 284 285 285 285 286 287 287 287 287 286 285 285 285 285 285 286 290 293 296 297 298 298 299 300 302 303 303 304 303 303 303 302 295 293 300 301 301 300 300 298 297 298 299 297 295 295 295 297 292 291 293 293 295 298 300 300 300 298 299 301 301 302 301 301 302 303
273 275 278 279 280 281 283 284 285 284 285 286 286 287 287 286 286 285 285 285 285 285 285 287 291 293 295 298 299 301 302 300 301 299 299 299 293 291 291 291 292 295 297 299 300 300 300 298 298 298 298 298 297 297 298 295 292 292 293 292 293 295 298 300 301 299 298 300 300 300 300 300 300 299
276 277 278 279 280 281 282 284 283 283 283 285 286 286 286 285 285 285 285 285 285 285 286 288 291 293 295 297 299 300 300 299 299 298 297 293 293 294 294 294 291 292 296 298 301 301 300 299 298 298 298 298 298 296 296 293 290 292 292 294 295 293 295 297 298 299 297 297 298 298 301 301 301 298
273 274 275 276 279 280 282 284 285 284 285 285 285 285 285 286 286 286 285 286 286 286 287 289 292 294 295 296 295 297 297 298 298 298 295 297 297 295 296 295 290 291 293 296 299 300 299 298 298 297 297 297 297 296 294 295 293 292 292 295 294 294 294 296 297 297 298 298 298 297 298 299 299 296
274 274 276 277 277 279 282 284 284 284 284 285 285 285 285 285 286 286 286 286 286 287 289 291 292 292 292 292 293 295 296 297 297 296 296 297 296 296 295 293 291 291 291 293 294 292 291 295 297 298 298 297 296 294 293 294 294 293 293 294 295 297 293 294 296 296 295 295 296 296 296 297 298 298
273 274 275 275 276 278 280 282 283 283 284 284 284 285 285 285 285 285 285 285 286 286 288 290 291 291 292 292 293 293 294 295 296 296 296 296 297 295 296 295 293 291 291 291 293 292 291 292 294 296 297 297 296 294 294 293 293 294 294 294 294 295 293 296 296 295 293 294 295 295 294 295 296 298
272 273 275 275 276 278 280 281 282 283 284 283 284 284 285 285 285 285 286 286 286 288 290 291 291 291 291 291 292 293 293 294 294 295 295 295 296 295 296 295 293 293 292 292 292 291 290 290 290 290 289 289 291 293 296 296 294 293 294 295 294 295 294 295 295 293 293 296 296 294 294 294 295 296
269 270 272 274 276 277 279 281 282 284 284 284 284 284 285 285 286 286 286 286 287 289 290 291 291 291 292 291 292 293 293 293 293 294 294 295 295 296 296 295 293 293 293 292 292 291 291 291 292 291 290 290 291 291 291 292 295 293 293 293 294 295 293 293 294 293 292 294 296 295 294 294 294 295
264 265 265 266 267 268 269 271 274 278 282 284 285 285 285 285 286 286 286 288 289 290 291 291 290 291 291 292 292 293 293 292 293 293 293 294 294 295 296 295 293 293 293 293 292 292 291 292 293 293 291 291 291 290 292 292 291 295 293 292 293 294 293 292 292 293 293 294 295 295 294 293 294 294
261 262 263 263 264 264 265 266 268 271 273 277 282 285 285 285 286 286 288 290 290 290 291 291 291 291 292 292 292 291 292 292 292 292 292 293 294 294 295 294 292 293 293 293 293 291 292 292 293 294 293 292 291 291 292 291 287 290 295 293 292 293 293 292 292 292 293 293 294 294 295 295 295 295
259 260 261 262 263 263 264 265 266 267 268 271 274 279 284 286 286 287 288 289 290 291 291 291 291 291 292 291 292 292 292 292 292 292 292 293 293 293 294 294 292 292 293 293 292 291 292 292 293 294 295 293 292 292 292 285 288 288 290 294 292 292 293 292 291 291 291 293 293 294 295 295 295 295
259 259 260 261 262 263 263 264 265 265 266 267 269 271 275 282 286 286 287 288 290 291 291 291 291 291 291 291 291 291 291 291 291 291 292 292 293 293 293 293 292 292 292 291 291 291 291 292 293 294 295 295 294 294 295 289 289 289 288 290 293 292 292 292 291 292 291 291 292 292 293 288 283 286
260 261 260 261 262 263 264 264 264 265 265 266 267 269 272 276 282 286 286 287 289 290 291 291 290 290 291 291 291 292 291 291 291 292 292 292 292 292 293 292 292 291 291 290 289 290 291 292 293 294 296 297 295 294 293 289 287 288 288 289 291 293 293 293 292 291 291 292 291 290 289 287 288 284
260 260 261 261 262 263 263 264 264 265 265 266 266 268 269 271 276 284 286 288 289 290 291 291 291 290 291 291 291 291 291 291 291 291 291 292 291 291 291 290 291 291 290 289 289 290 290 293 292 291 289 288 289 291 289 287 286 286 288 289 289 291 292 292 293 292 291 290 290 289 289 287 288 286
260 260 261 262 262 263 264 264 265 265 265 266 266 266 266 268 272 278 285 287 289 289 291 291 290 291 291 291 291 291 291 290 291 291 291 291 291 291 290 291 291 290 290 290 289 290 291 289 288 289 289 290 291 292 291 291 290 288 288 288 288 289 289 290 291 291 292 290 289 288 288 287 285 286
260 261 261 262 263 263 264 264 265 265 265 265 265 266 266 266 268 270 276 284 287 288 290 290 291 291 291 291 291 291 291 290 291 291 290 290 291 291 291 291 292 291 291 291 290 289 288 290 290 290 290 291 292 294 293 292 293 290 287 287 287 287 288 288 289 289 289 290 291 292 291 289 285 282
260 261 261 262 262 263 264 264 265 265 265 265 266 265 265 265 265 267 268 271 280 286 288 289 290 291 291 291 291 291 291 291 291 291 290 290 290 291 291 291 291 290 291 290 288 288 289 290 290 291 290 290 292 292 293 292 292 289 288 287 286 286 286 286 287 288 288 289 289 290 290 290 291 290
260 261 261 262 263 263 264 264 265 265 265 265 266 265 265 265 265 265 266 267 268 272 281 288 289 290 291 291 291 290 291 290 291 291 291 291 291 291 291 291 291 290 290 290 288 287 288 289 289 290 290 291 291 291 292 291 290 287 286 285 285 285 286 285 285 285 286 287 288 288 289 289 288 284
Wind_Speed
17 15 17 15 14 14 15 15 14 13 12 10 10 10 14 13 14 10 10 10 11 11 10 10 10 13 14 12 10 10 10 9 12 7 8 12 12 27 36 41 44 38 32 32 30 33 34 32 33 32 31 31 31 30 30 30 28 29 30 28 27 28 28 28 25 26 25 25 25 24 25 25 26 26
16 16 13 12 12 12 13 15 15 13 12 11 10 11 12 13 13 13 11 12 9 10 8 8 9 8 14 14 11 11 12 13 16 11 7 10 13 24 30 28 30 36 36 32 29 30 32 31 32 32 31 31 31 31 31 30 30 28 28 28 28 28 28 26 26 25 25 25 24 23 23 24 24 25
11 13 15 12 12 12 15 15 16 12 11 9 8 10 11 12 12 13 14 15 10 7 10 10 9 10 12 15 13 12 12 13 17 14 10 9 15 21 25 34 34 32 33 33 30 30 30 30 29 28 30 30 30 29 30 29 29 29 28 29 28 28 27 26 26 25 24 24 23 23 23 23 23 24
13 15 16 17 15 14 13 14 16 13 11 9 9 10 12 12 12 12 12 12 16 8 10 9 10 12 13 14 16 15 13 13 21 13 13 13 15 13 13 24 32 35 38 36 31 31 30 30 29 28 29 29 30 30 28 28 29 28 27 27 27 26 25 25 25 25 23 23 23 23 23 23 23 24
16 18 19 17 14 13 14 14 14 14 12 10 9 9 10 12 12 11 12 14 17 10 9 9 11 12 12 15 15 17 15 14 15 17 14 14 13 13 13 17 26 30 35 40 38 31 30 30 28 28 28 28 29 29 29 28 29 29 27 26 26 25 25 25 25 24 24 23 23 23 23 23 23 22
16 15 16 16 16 14 14 15 16 16 12 10 10 10 11 11 11 11 12 14 14 16 9 9 10 11 12 16 15 16 17 17 13 16 15 14 16 15 13 15 18 27 27 28 35 38 34 31 28 27 27 27 28 29 29 28 28 28 27 26 25 24 24 24 24 24 24 24 23 23 23 24 23 23
17 18 17 17 15 14 15 15 15 15 14 10 11 12 10 13 12 11 13 12 13 15 15 10 11 11 12 16 18 17 17 18 19 18 17 16 15 15 16 16 15 25 26 27 28 30 32 31 29 27 27 27 27 28 28 27 27 27 26 25 24 23 23 24 24 24 24 25 24 24 23 24 24 24
17 19 19 18 15 15 15 15 14 15 13 11 10 11 11 11 12 11 12 13 13 13 14 12 10 11 11 14 19 17 16 19 18 17 16 18 19 16 15 17 17 21 27 28 28 27 26 28 29 27 26 26 25 24 25 26 26 25 24 24 23 23 23 23 24 24 24 24 24 24 24 25 24 24
19 19 19 19 17 17 16 14 14 13 15 10 9 10 9 11 12 11 11 11 11 13 15 14 9 10 11 13 15 17 17 15 16 16 18 19 19 19 17 14 17 24 28 26 29 27 26 23 27 26 25 24 25 25 24 24 24 23 23 23 23 23 23 23 24 24 23 25 24 25 26 25 24 23
18 19 19 19 18 17 17 15 14 14 13 11 9 9 8 9 9 11 11 11 12 14 15 12 11 9 11 13 12 15 19 17 14 12 14 17 18 18 17 14 14 15 16 16 20 23 25 24 25 27 25 25 25 24 24 23 23 23 23 23 23 24 24 24 25 25 24 23 25 24 25 24 22 21
17 19 19 19 17 18 18 17 15 15 14 11 11 10 10 9 10 11 11 11 12 13 15 13 13 11 11 13 11 11 18 18 19 18 14 13 11 14 18 15 12 14 16 19 24 22 21 25 22 25 26 26 25 23 23 22 22 23 23 23 24 24 24 24 25 25 26 23 23 23 23 23 21 20
17 19 19 19 19 19 19 15 15 14 13 11 12 10 8 7 6 6 6 7 9 11 13 12 12 12 13 13 12 10 15 16 15 18 19 18 15 13 14 17 17 14 16 15 15 18 18 21 23 25 25 26 26 24 22 22 22 23 24 24 25 25 25 25 25 25 25 24 23 23 23 22 21 20
17 17 18 19 19 21 26 30 26 23 20 13 9 7 7 8 8 9 9 9 7 8 9 11 11 12 13 15 14 13 15 19 18 14 17 18 20 18 16 15 17 18 18 14 15 15 18 16 16 15 16 17 22 21 22 20 24 23 23 25 26 26 26 25 27 27 26 25 24 23 23 23 22 20
16 17 17 18 27 29 30 30 31 30 31 30 22 11 9 8 9 9 9 9 7 7 10 13 12 15 16 16 16 15 16 17 18 22 19 19 17 17 15 12 10 14 16 16 16 14 14 16 15 14 16 15 18 13 16 15 17 21 24 25 26 28 28 27 26 27 26 25 24 24 23 23 23 22
15 15 17 18 21 24 26 25 32 31 31 29 29 25 19 15 12 10 11 10 8 8 10 12 16 16 19 19 16 18 20 18 21 20 19 17 18 18 19 16 7 9 18 17 16 14 12 16 16 14 15 15 14 15 14 19 22 25 26 28 29 28 28 29 28 27 27 26 25 24 23 23 23 22
15 17 18 17 15 16 18 18 19 23 27 30 29 28 25 26 26 21 13 11 9 10 10 12 16 16 19 18 18 18 19 18 19 20 20 21 22 21 21 19 21 16 19 18 15 13 8 12 15 14 13 13 14 14 17 23 24 26 27 25 26 29 28 27 27 27 26 26 26 25 24 23 23 22
16 15 16 16 14 14 25 22 18 16 16 22 27 26 26 26 27 25 24 20 14 10 11 12 16 17 18 19 20 20 20 17 20 19 19 20 21 22 22 20 18 18 19 19 17 17 11 12 14 15 11 10 12 13 19 24 25 26 28 30 27 26 25 26 27 26 26 26 26 26 25 24 23 23
16 15 17 16 16 16 17 16 15 13 13 11 11 13 13 12 15 20 22 22 23 19 13 14 17 19 17 18 19 20 22 23 22 22 22 23 22 22 22 19 18 18 20 23 19 16 13 10 13 13 8 8 11 11 19 26 24 24 24 29 31 29 28 27 27 27 26 26 26 26 25 25 24 23
16 16 16 18 19 17 17 15 15 11 11 12 12 12 12 12 11 11 11 12 11 11 12 15 18 20 20 19 20 19 22 26 24 25 26 27 25 19 14 13 15 16 16 18 18 19 16 11 14 11 9 7 8 6 17 25 25 28 29 28 29 31 30 28 27 26 26 25 26 26 25 25 24 23
15 15 16 17 17 17 19 22 27 24 16 12 11 12 12 11 11 11 11 16 16 14 13 15 18 17 21 25 19 20 23 23 21 20 16 13 14 17 17 16 15 17 14 17 19 16 16 11 15 9 6 7 7 6 7 21 26 25 28 29 28 27 27 26 27 27 27 26 26 26 26 25 25 24
15 17 18 18 17 17 17 24 29 28 24 14 14 13 12 11 10 12 10 17 21 23 24 28 32 34 35 34 32 28 32 26 20 17 17 17 19 20 19 16 17 17 15 14 16 15 16 11 13 10 8 10 11 9 9 10 21 28 26 28 28 27 27 27 27 27 27 27 27 27 27 27 26 26
13 17 28 24 19 18 17 21 25 25 20 15 14 13 12 13 14 14 10 9 12 18 22 26 31 35 35 36 33 29 29 28 22 22 23 22 22 22 21 19 18 16 16 14 11 14 16 12 9 10 6 5 2 6 6 6 9 17 23 27 27 27 28 28 29 27 27 27 27 27 27 26 25 20
12 12 16 25 23 21 21 29 28 29 23 15 13 12 12 14 16 14 9 10 12 13 13 16 19 20 26 25 23 23 32 31 28 25 26 24 24 23 21 21 18 16 14 13 15 16 12 16 12 14 11 11 1 1 6 7 7 9 7 14 20 27 28 29 28 28 28 27 27 27 27 27 24 13
11 12 13 16 24 28 29 29 30 29 28 18 13 12 13 15 18 10 8 11 10 12 13 16 19 18 17 18 20 20 22 25 26 24 22 23 23 23 21 20 21 20 18 18 22 17 13 18 17 14 17 18 12 7 7 8 9 9 10 9 9 22 26 27 24 29 28 27 28 27 27 27 23 13
11 12 12 12 19 25 26 27 28 27 26 23 14 13 14 14 13 11 10 12 13 12 14 16 19 16 14 17 16 18 19 20 20 20 20 21 22 23 22 21 21 19 17 19 23 15 13 16 17 16 14 13 6 8 4 6 4 7 8 10 10 11 10 14 12 16 21 27 27 28 28 28 28 19
12 13 12 12 17 23 24 25 26 27 25 26 16 14 17 20 19 16 11 10 10 11 12 14 16 14 14 16 15 18 19 18 18 18 20 20 21 21 24 27 26 21 18 21 30 20 18 16 19 18 15 13 7 12 9 8 8 10 10 11 11 12 14 11 11 13 14 15 17 22 24 29 27 26
14 13 14 15 22 24 24 25 26 26 28 23 15 18 21 23 24 17 10 10 11 12 13 14 14 13 14 14 15 15 18 18 18 18 17 20 20 19 20 25 27 26 23 24 24 19 20 18 21 25 22 18 15 13 14 11 5 5 8 11 11 10 12 12 13 12 13 14 13 23 25 28 28 27
14 14 14 14 22 22 23 25 25 26 24 16 17 20 23 23 19 11 10 10 12 13 12 13 12 11 13 14 16 16 16 16 19 19 20 18 16 16 16 15 5 5 17 24 24 20 20 18 19 21 22 20 18 19 19 14 9 11 12 8 8 9 10 12 12 10 11 12 11 12 12 14 16 19
14 19 26 28 27 26 25 27 27 23 23 26 23 23 23 19 10 10 10 11 11 12 12 12 10 10 14 16 17 19 19 19 17 16 15 12 7 7 9 9 10 13 14 18 21 19 17 17 20 19 17 16 17 15 14 14 14 15 13 12 10 11 12 12 13 13 11 11 13 13 14 13 13 14
27 26 26 28 27 22 19 15 12 11 12 17 19 21 20 11 10 9 10 10 11 11 10 11 12 11 12 15 15 17 16 17 16 16 14 11 10 12 12 11 8 7 14 18 20 19 18 16 17 19 19 18 17 16 16 15 10 11 13 16 11 5 6 11 12 13 13 13 13 14 12 13 15 14
12 15 16 14 20 20 25 22 16 15 15 13 11 10 10 9 9 9 9 10 10 9 9 11 11 9 8 8 11 14 15 16 16 16 17 17 15 13 12 13 10 9 10 13 16 16 15 15 17 19 20 17 15 15 14 15 16 14 13 12 14 17 14 12 12 13 14 12 10 10 11 12 12 14
13 12 15 16 12 11 10 7 6 8 8 9 8 8 8 8 9 10 13 11 9 8 10 11 9 6 5 7 9 12 15 17 16 16 17 17 16 14 13 12 11 10 10 10 8 5 8 12 16 17 18 19 20 14 11 14 17 17 16 14 14 10 9 15 15 13 12 12 12 13 13 13 13 12
13 11 10 9 9 9 8 6 5 6 7 8 8 10 9 9 9 8 8 8 8 9 10 10 8 7 7 9 11 12 13 15 16 15 16 16 17 15 15 17 14 13 14 13 13 11 8 8 8 10 11 11 12 16 18 15 13 14 17 16 15 12 12 14 13 13 12 13 14 12 10 10 11 13
10 8 7 6 8 9 7 7 5 5 6 7 7 8 9 10 9 8 8 8 7 8 11 10 11 12 11 10 12 14 14 13 13 16 19 17 17 17 16 16 15 14 15 15 14 12 9 9 9 9 8 6 4 12 16 18 16 15 15 16 16 16 13 13 13 14 16 18 17 14 13 13 12 12
13 12 10 8 8 9 9 8 6 6 5 6 6 7 7 7 8 8 8 7 7 10 10 10 9 10 13 13 14 15 16 17 15 14 14 16 17 18 18 17 16 15 14 14 14 13 14 13 13 11 8 8 6 2 9 4 13 13 11 13 15 16 13 12 13 13 14 12 12 16 16 13 12 12
13 11 10 9 10 10 10 11 12 12 10 7 6 6 7 7 6 7 7 7 9 9 10 10 10 11 12 13 14 15 15 16 15 14 14 15 17 17 17 17 17 16 16 16 16 14 15 16 17 18 16 13 14 13 15 14 10 16 17 15 13 13 12 13 13 14 14 15 15 16 16 16 16 12
12 12 11 11 11 10 10 11 11 11 12 13 11 8 7 7 6 5 7 8 9 9 10 9 11 12 13 13 14 14 15 15 16 16 15 15 16 16 16 15 16 16 16 15 14 14 15 17 17 19 19 17 18 21 19 9 4 6 16 18 14 14 14 13 13 14 15 16 16 15 17 15 13 13
11 12 11 12 11 11 11 11 11 11 12 12 12 13 10 7 6 6 7 8 9 8 10 10 10 11 11 11 12 13 13 15 15 16 16 16 15 14 15 15 15 16 17 15 15 15 15 17 19 20 21 22 23 23 17 5 7 7 10 13 16 15 13 14 15 17 16 13 15 15 10 11 13 11
8 9 10 11 11 11 11 10 10 11 11 11 12 11 13 12 7 6 7 7 7 8 8 9 10 10 12 12 12 13 14 14 14 16 16 14 16 17 16 15 15 14 14 14 14 15 15 18 20 22 23 24 25 23 18 15 14 9 5 11 15 16 16 18 18 14 12 14 13 8 6 2 8 8
10 11 9 9 11 10 9 9 9 9 10 11 11 11 11 13 12 8 7 7 6 7 9 9 10 12 11 13 13 13 13 16 17 16 16 16 16 16 16 14 15 16 15 16 16 16 18 20 21 22 22 18 9 7 10 9 6 6 9 12 23 24 20 15 15 16 15 13 11 11 12 8 8 2
10 13 13 11 8 8 9 9 9 9 10 11 11 12 12 11 13 11 7 7 6 6 9 9 10 11 11 12 13 14 14 14 14 15 16 15 16 15 17 17 15 16 17 17 19 19 21 20 13 10 10 11 13 15 13 11 10 11 15 14 17 21 18 21 18 16 14 13 13 14 12 12 13 7
12 13 13 13 13 12 12 12 10 9 9 11 11 11 11 12 11 19 12 9 7 5 5 9 10 11 11 12 12 13 14 15 14 14 15 14 14 15 17 16 16 16 18 19 19 18 10 10 14 14 12 12 13 15 17 19 20 15 11 9 9 13 15 17 15 15 16 17 15 13 11 5 4 9
13 13 13 13 12 12 12 12 12 12 11 10 10 11 11 11 11 12 12 9 5 4 3 5 8 10 11 11 12 12 13 14 15 15 15 14 15 16 15 16 17 18 17 14 10 9 11 13 13 12 11 13 15 16 19 19 16 12 12 12 13 11 8 12 17 16 17 22 23 21 19 16 10 10
14 13 13 13 13 13 13 13 12 12 12 11 10 9 10 10 10 10 9 10 10 5 4 3 6 9 10 11 11 11 11 13 13 15 16 16 15 16 16 16 14 12 12 11 13 13 12 12 13 14 15 16 15 15 17 15 13 13 15 13 11 12 12 9 8 8 10 16 21 21 22 22 21 9
14 13 13 13 13 13 13 13 12 13 12 12 12 11 11 10 10 10 9 8 8 10 8 4 5 7 9 10 12 12 11 12 13 13 14 15 14 15 14 14 13 13 14 14 14 12 12 13 13 13 14 15 13 14 13 11 12 10 10 13 15 15 14 12 13 13 13 11 15 19 17 19 14 11
Wind_Direction
263 261 266 272 276 278 281 275 256 247 246 240 244 247 255 257 264 265 262 247 246 246 218 254 249 226 236 232 217 209 203 180 169 191 193 163 164 160 161 162 157 158 165 165 163 162 164 168 167 169 166 165 168 167 166 166 168 170 175 176 176 176 178 178 176 175 175 176 178 176 172 170 169 169
254 255 261 271 279 280 283 279 262 244 243 243 237 245 250 252 257 263 265 264 228 248 232 235 261 247 231 229 214 210 206 169 169 167 206 168 162 157 149 151 154 155 162 165 164 165 165 167 167 168 167 166 166 164 165 167 168 173 176 175 177 178 178 175 176 176 176 177 176 174 171 170 168 169
289 290 285 280 276 279 280 280 270 250 241 245 249 251 249 254 257 253 248 260 241 202 239 247 258 272 249 226 216 206 201 176 177 166 176 177 164 161 160 158 161 161 161 162 165 167 165 165 166 168 166 165 164 164 166 167 169 176 177 178 179 177 176 173 174 176 176 176 173 170 170 169 168 170
280 281 277 271 268 268 274 280 277 255 240 234 238 243 250 250 252 264 269 259 266 210 231 243 253 264 269 238 213 202 192 184 183 171 169 167 158 158 166 168 166 165 162 161 166 166 165 165 166 167 166 166 165 166 168 169 171 176 179 180 179 177 174 171 172 173 172 171 168 167 166 164 167 170
273 270 263 264 265 273 276 279 280 264 243 237 235 241 250 252 248 247 252 260 267 260 222 234 246 257 264 257 223 196 187 183 192 174 169 160 161 167 170 170 171 171 169 164 162 163 164 166 167 168 167 167 167 168 170 171 174 177 180 180 179 177 173 170 169 168 168 168 165 163 163 164 165 165
271 277 287 284 281 274 274 275 275 268 253 242 241 242 242 245 249 239 246 252 261 266 246 233 239 249 247 252 232 198 182 178 184 176 168 167 165 169 172 169 169 169 168 167 160 159 163 166 168 170 170 169 168 169 172 174 176 176 177 177 177 174 172 169 166 164 166 166 163 163 164 163 163 162
272 273 274 277 276 274 272 272 273 272 255 244 246 245 239 243 242 241 242 249 254 258 260 237 244 241 245 240 229 204 182 174 177 169 166 164 165 163 166 166 166 166 162 163 159 160 161 164 167 170 172 172 172 172 172 175 175 175 175 174 172 170 169 167 165 164 165 166 165 166 167 163 163 161
269 272 273 270 270 268 265 266 272 274 259 237 238 244 244 247 246 242 250 249 254 257 261 247 231 243 241 247 224 202 182 175 175 167 159 160 161 159 166 165 161 167 164 163 159 159 162 165 166 171 172 173 172 174 175 175 175 175 173 170 169 167 166 165 164 164 167 167 167 169 167 162 162 161
265 268 267 271 272 271 267 265 265 262 263 246 240 243 246 248 246 243 247 254 257 261 251 255 238 240 245 244 227 191 177 173 169 163 161 161 158 158 160 164 160 163 166 165 159 160 165 171 168 170 172 173 175 177 176 176 174 173 171 169 167 166 165 164 164 164 166 166 168 174 168 163 161 160
262 266 267 267 265 263 263 265 268 270 260 249 240 242 249 256 258 256 253 252 257 261 260 250 252 234 242 246 238 197 169 164 158 154 155 154 155 152 153 160 155 161 163 166 161 161 166 174 175 170 176 176 177 179 177 174 172 171 169 168 165 164 165 165 165 166 166 168 169 171 167 167 166 164
263 267 267 265 264 264 262 263 261 261 262 258 252 243 249 253 256 253 252 250 252 254 256 249 244 246 242 246 239 207 169 164 159 155 152 148 149 147 148 151 157 160 164 167 165 167 169 171 179 177 176 177 180 178 176 175 170 168 168 166 164 164 165 166 165 165 165 168 164 163 163 165 166 167
263 266 267 267 265 265 262 253 251 251 252 249 243 235 229 244 261 278 286 281 264 253 250 244 239 232 242 246 242 205 171 163 163 161 156 152 148 146 151 155 158 165 162 164 167 168 163 170 179 177 175 178 180 178 177 174 170 170 168 166 165 164 165 165 164 163 164 163 162 159 159 160 163 166
258 257 259 261 261 259 259 265 268 268 267 270 263 236 225 236 249 260 265 266 270 281 271 255 238 237 234 236 232 208 182 166 163 164 160 157 156 152 154 162 163 163 160 161 162 168 170 171 178 180 178 181 179 179 176 177 174 173 169 169 167 165 163 165 162 161 162 160 159 159 159 159 161 163
256 256 257 259 259 260 260 259 258 256 256 254 250 241 219 222 239 246 251 252 257 261 266 265 248 230 232 229 221 203 181 169 161 162 161 156 150 142 144 144 162 161 155 155 162 171 173 167 171 179 180 182 177 179 178 179 176 174 172 173 169 166 163 164 161 159 158 158 158 159 159 160 161 162
254 256 262 267 263 261 260 258 256 253 251 249 246 241 236 232 228 236 241 247 246 254 261 267 254 230 228 223 216 202 179 178 167 163 156 150 148 152 150 153 152 176 159 162 162 168 173 165 171 181 183 177 179 177 183 173 174 171 173 175 169 166 166 162 160 159 157 157 157 157 159 160 161 162
263 267 270 268 270 269 262 254 251 251 248 246 242 238 237 235 229 227 228 242 252 245 257 264 267 238 221 216 211 201 179 173 167 163 155 157 158 159 160 160 168 174 166 159 163 163 171 168 170 174 184 176 182 178 174 171 175 175 171 167 167 163 163 160 158 159 158 157 157 157 159 161 161 162
266 267 270 270 267 265 268 268 260 255 250 244 240 236 233 230 226 226 230 234 241 253 251 258 265 262 224 210 210 197 175 167 162 160 163 165 164 163 164 168 163 166 165 156 163 167 174 170 171 175 180 171 170 165 170 173 177 179 173 165 167 161 160 159 158 159 160 159 158 159 161 162 163 163
255 255 264 266 266 266 267 264 256 248 247 245 232 228 224 220 222 228 235 241 245 244 244 252 259 260 258 214 210 199 171 169 168 166 166 167 167 168 171 162 153 159 165 165 161 165 175 178 168 174 172 169 165 169 172 170 173 168 176 171 164 162 162 163 161 161 161 162 161 161 162 163 163 163
247 248 248 257 261 265 267 265 268 261 249 240 234 227 225 222 225 224 229 235 240 241 236 247 249 257 260 252 215 197 179 172 172 170 170 171 169 157 133 120 137 153 170 161 156 171 176 175 171 171 157 160 157 163 169 171 173 169 171 171 169 165 165 163 161 161 163 164 164 163 163 164 165 165
253 252 255 257 254 255 261 265 265 264 263 255 245 237 234 235 232 234 226 236 244 243 248 256 262 260 251 252 231 200 183 176 173 170 152 126 112 120 134 142 150 161 176 168 168 171 171 172 171 151 149 144 152 158 169 178 172 176 171 169 167 165 162 162 162 164 167 167 166 165 166 167 168 169
251 259 259 256 255 251 253 259 264 263 260 255 255 253 251 247 247 249 242 246 249 250 252 259 263 262 258 248 236 208 184 172 164 146 137 142 145 150 154 155 156 169 169 187 177 155 163 175 166 136 156 164 164 168 174 181 180 175 178 169 166 165 165 166 168 169 170 171 170 169 169 170 170 170
242 251 258 253 248 251 254 258 260 263 265 266 260 257 255 254 252 252 247 247 255 260 267 271 269 261 250 243 230 202 182 162 150 155 159 163 161 159 155 158 166 163 175 180 159 147 169 157 154 127 109 85 90 160 166 167 188 192 177 171 168 169 170 172 172 172 173 174 174 173 172 171 170 170
248 252 256 256 251 246 246 251 254 256 254 252 250 252 254 255 254 253 250 256 266 275 284 282 275 254 238 230 214 194 176 158 162 167 166 165 165 163 164 159 154 156 177 182 168 158 156 160 171 148 137 169 166 143 156 165 174 177 211 177 174 178 176 176 174 174 175 175 175 174 173 172 169 171
253 246 252 256 257 256 252 250 249 249 248 245 242 242 246 249 255 257 258 255 257 271 277 280 276 248 222 213 203 183 171 166 168 170 168 167 164 164 162 159 161 168 176 180 179 168 164 169 166 173 173 170 178 194 164 181 175 185 180 185 183 186 178 175 177 177 176 175 175 175 174 173 170 168
269 254 247 249 250 253 255 252 250 248 247 248 244 242 244 246 257 263 257 261 259 267 274 277 272 241 210 200 197 177 171 169 169 166 168 173 169 161 160 162 170 178 177 172 173 147 156 169 168 174 180 180 127 132 164 142 158 179 183 173 180 184 185 180 172 175 176 176 177 177 177 175 173 170
296 288 275 259 255 255 255 256 256 255 254 254 251 245 248 252 251 252 252 261 265 266 267 270 262 227 199 191 188 178 170 170 167 167 169 174 174 171 165 169 173 175 170 171 169 160 154 174 170 173 178 173 146 156 150 172 172 183 169 176 182 181 173 176 172 175 177 181 181 181 179 176 176 175
290 288 286 280 270 264 261 260 259 258 256 254 248 249 250 251 248 245 246 252 260 262 263 265 254 212 191 183 180 178 168 168 166 168 173 176 175 177 181 180 177 173 164 165 173 163 162 169 173 174 178 177 161 161 169 169 177 152 161 179 181 180 174 173 177 177 178 180 183 182 178 179 178 178
287 285 282 279 283 279 271 265 261 259 257 250 250 250 252 250 247 240 246 248 249 255 260 261 242 204 183 179 175 175 170 169 170 170 171 175 180 178 182 174 128 85 142 159 169 167 167 164 173 184 176 168 165 173 181 181 147 164 165 161 162 173 174 172 173 170 175 175 170 176 177 183 183 180
283 280 281 283 283 281 279 271 261 258 258 256 254 251 248 244 231 231 233 240 244 249 252 252 232 204 185 184 182 174 171 172 168 164 166 154 103 79 83 83 111 132 145 163 166 167 167 166 173 172 168 175 178 182 173 168 161 173 168 153 176 185 177 174 172 173 173 173 175 177 183 178 182 185
287 286 287 288 287 285 286 278 252 244 247 251 247 247 244 235 227 220 230 234 238 245 251 245 225 208 192 187 185 172 166 166 167 159 149 131 130 131 128 117 94 125 152 165 174 171 167 166 166 168 173 179 180 172 172 153 159 165 166 176 169 109 181 174 176 171 167 176 181 180 181 181 186 185
282 281 281 282 288 289 285 280 249 237 243 245 242 238 235 230 225 225 226 232 239 248 253 244 224 214 202 177 166 170 168 168 169 165 160 164 165 153 147 138 123 122 155 169 174 172 164 159 164 169 173 175 175 176 169 162 164 164 174 172 157 181 185 177 173 176 179 175 170 176 181 186 189 188
290 286 281 281 284 285 283 273 232 229 230 230 228 226 224 223 225 230 233 236 241 248 253 243 221 198 177 159 161 162 169 173 171 167 165 166 163 160 147 136 138 132 136 148 145 130 144 161 167 175 177 171 175 165 154 168 169 173 174 176 183 173 137 176 181 180 170 160 175 191 192 188 187 189
288 266 266 267 280 279 283 281 254 233 222 218 225 232 235 234 231 231 224 227 232 239 243 224 188 181 162 174 169 168 169 172 168 166 168 168 162 163 162 161 155 149 148 155 160 158 145 151 159 160 163 174 170 154 158 167 182 174 172 179 180 176 177 184 174 168 161 171 190 189 190 197 197 191
274 265 250 257 272 280 278 281 279 261 229 225 224 228 228 231 234 232 234 232 232 238 232 203 181 175 171 169 176 171 169 170 171 172 169 168 165 163 170 167 162 161 158 158 162 155 129 122 109 89 76 73 98 168 174 175 174 177 180 175 178 184 182 176 179 171 175 187 185 185 198 204 201 198
16 4 357 346 334 328 322 310 296 280 267 246 236 235 236 230 233 235 237 234 227 230 219 201 187 173 171 170 176 178 173 170 169 171 172 165 167 170 172 170 165 164 160 160 161 157 149 144 137 124 101 109 114 280 294 243 164 174 173 182 184 180 171 175 174 174 183 189 182 193 203 201 201 206
9 1 359 353 352 349 342 344 338 332 316 287 261 260 255 249 238 239 243 236 230 220 207 191 179 173 174 173 177 177 175 170 167 166 168 168 171 174 174 172 166 167 167 168 166 160 158 159 159 159 162 166 173 185 214 228 194 173 171 181 184 178 170 170 178 179 184 191 196 198 199 200 205 195
5 357 356 355 352 350 344 339 336 331 333 329 314 281 266 267 262 251 253 248 230 215 201 188 181 178 176 173 174 177 172 169 168 170 172 175 172 171 171 170 165 167 169 172 165 162 161 165 170 170 172 177 186 195 201 153 182 242 180 172 175 177 167 167 172 187 195 193 195 200 203 202 204 198
360 354 350 351 349 348 349 345 337 337 332 328 329 325 305 273 267 264 263 254 229 209 193 188 180 176 176 171 172 174 175 174 168 171 175 170 168 170 173 168 168 170 172 166 165 168 169 168 175 180 179 186 193 201 187 121 175 213 212 174 167 170 167 167 180 191 192 194 202 202 198 207 212 205
356 351 350 343 344 340 341 340 340 333 327 329 329 324 324 313 281 264 258 254 229 198 186 182 177 176 174 175 176 175 174 170 170 175 174 173 171 172 174 169 163 165 160 161 167 174 175 177 181 186 189 191 198 197 181 169 190 159 167 182 164 164 178 183 187 183 176 186 201 184 184 68 62 79
354 355 344 339 335 329 327 332 336 336 333 332 321 320 320 321 308 276 259 257 236 193 182 180 176 175 177 177 177 176 175 176 176 177 176 175 177 174 169 165 164 162 165 168 171 177 184 190 187 190 193 195 181 124 121 121 92 122 172 197 182 176 182 179 180 175 188 190 167 168 186 162 187 136
352 358 355 339 318 322 328 330 328 331 334 333 329 325 325 316 315 301 276 257 252 210 181 176 175 177 177 178 178 175 175 179 180 178 178 178 174 175 170 164 162 167 169 176 181 183 193 196 178 134 103 97 117 109 105 116 147 172 192 196 198 194 179 181 179 178 177 161 166 185 182 185 199 166
358 357 355 355 353 347 345 343 337 334 329 338 339 335 328 327 321 318 294 262 264 253 195 175 173 177 177 178 180 180 180 178 179 178 177 174 172 174 172 169 169 174 179 181 186 190 168 110 115 132 148 140 137 154 172 180 189 185 177 167 176 199 194 192 189 178 167 160 167 174 180 159 115 206
358 357 356 353 350 348 348 346 345 346 342 335 335 340 334 328 329 333 334 309 260 271 245 183 178 178 177 179 182 183 180 180 177 176 174 176 173 173 176 183 182 179 182 177 154 124 130 152 153 150 155 169 182 184 190 193 185 155 162 169 179 178 184 189 183 177 173 179 180 179 177 175 153 203
355 353 354 351 352 349 348 347 346 347 345 345 336 337 345 340 331 328 328 335 328 295 256 227 183 182 181 179 183 184 185 182 180 177 174 176 177 179 181 184 177 168 165 149 151 161 158 157 163 165 171 190 191 193 200 185 177 169 174 169 160 163 174 166 173 176 181 194 197 194 189 185 192 178
353 352 350 351 351 350 348 347 347 347 348 347 347 346 344 343 334 323 323 326 335 336 321 264 215 195 186 183 181 187 188 184 181 181 178 177 177 180 183 176 169 166 167 164 157 155 156 164 172 178 187 191 186 194 194 175 168 152 152 153 168 178 176 164 167 180 193 204 209 202 196 198 191 116